Location: Newark
(50.8086°N, 4.3114°E)
Time: 07:26:37
(UTC+00:00)

XW-2D - Pass Details

Date: 21 January 2020
Orbit: 507 x 528 km, 97.5° (Epoch: 20 February)

Event Time Altitude Azimuth Distance (km) Brightness Sun altitude
Rises 17:29:15 0° 195° (SSW) 2,649 ? -11.5°
Reaches altitude 10° 17:31:36 10° 208° (SSW) 1,763 ? -11.9°
Maximum altitude 17:34:49 26° 266° (W) 1,071 ? -12.4°
Drops below altitude 10° 17:38:02 10° 323° (NW) 1,767 ? -12.9°
Sets 17:40:25 0° 337° (NNW) 2,656 ? -13.2°
